DELTA 1 DEB, 10648

Orbit data source: Space-Track

DELTA 1 DEB, 10648 is space debris in SSO originally from a launch on Thu, 29 Jul 1976 UTC launched from the Air Force Western Test Range (AFWTR). Debris objects in space refer to the collection of defunct objects orbiting the Earth. Examples of debris include non-operational satellites, rocket bodies, and fragments generated from explosions, collisions, or faulty payload assembly.

Loading next visibility...
Identifier
10648, 1976-077J
Orbit
SSO
Country
Flag of USUS
Related business
Manufacturer
Unknown
Mission
Spacecraft
Bus & Motor
Unknown
Mass
Unknown
Launch date (UTC)
1976-07-29 (49 years ago)
Launch vehicle
Unknown
Launch site
Air Force Western Test Range (AFWTR)
Object type
Payload
Rocket body
Debris
Shape & HBR
Unknown shape, 0.1 m
Radar Cross Section
Small (<0.1 m²)

Expand to show TLE details & history
Last TLE update: 19 hours ago

TLE from 19 hours ago
0 DELTA 1 DEB
1 10648U 76077J   25292.07224346 -.00000213  00000-0 -16128-2 0  9992
2 10648 101.9827 336.4529 0135181  67.1328 321.5362 12.19952897190833
Epoch: 2025-10-19T01:44Z
TLE epoch observation values (Epoch: 2025-10-19T01:44:01.834Z)
Latitude
27.07699°
Longitude
-83.54724°
Altitude
1,511.908 km
Speed
7.149 km/s
True Right ascension
22h 01m 01s
True Declination
26° 57' 04"
Sunlit
Object was in full shadow at epoch
Visualization orbit readout
Latitude
Unknown
Longitude
Unknown
Altitude
Unknown
Speed
Unknown
Apparent Right ascension
Unknown
Apparent Declination
Unknown
Sunlit
N/A
Visualization observer readout
Local Sidereal Time
15:32:48
Azimuth
Unknown
Elevation
Unknown
Doppler factor
Unknown
Orbital elements
Apogee altitude
1,698.065 km
Perigee altitude
1,482.627 km
Semi-major axis
7,968.483 km
Eccentricity
0.01352
Inclination
101.9827°
RAAN
336.4529°
Arg. of periapsis
67.1328°
True anomaly
320.55979°
Mean anomaly
321.5362°
Eccentric anomaly
321.04929°
Mean motion
3.05126 °/min
Orbital period
117.98 mins
BSTAR
-0.0016128
Loading maneuver chart data...
Computing Atmospheric mass density...
Loading historical data...
Loading historical data...
Loading historical data...
Loading historical data...
Loading historical data...
Loading historical data...
Loading historical data...

Documentation

Showing up to 5 results
|